This is the latest recevied weather packets stored in our database for station/object OH6GKW. If no packets are shown the sender has not sent any weather packets the latest 10 day(s).
| Time | Temp. | Humidity | Pressure | Rain* | Wind** | Luminosity | Snow |
|---|---|---|---|---|---|---|---|
| 1777370613 | 3.33° C | 62% | 1022 hPa | 0 mm | - | 665 W/m² | - |
| 1777370324 | 3.33° C | 62% | 1021.9 hPa | 0 mm | - | 665 W/m² | - |
| 1777370015 | 3.33° C | 62% | 1021.9 hPa | 0 mm | - | 662 W/m² | - |
| 1777369711 | 3.89° C | 61% | 1021.9 hPa | 0 mm | - | 665 W/m² | - |
| 1777369434 | 3.33° C | 62% | 1021.9 hPa | 0 mm | - | 683 W/m² | - |
| 1777369131 | 3.33° C | 63% | 1021.9 hPa | 0 mm | - | 660 W/m² | - |
| 1777368829 | 3.33° C | 61% | 1021.9 hPa | 0 mm | - | 655 W/m² | - |
| 1777368519 | 3.33° C | 61% | 1021.7 hPa | 0 mm | - | 649 W/m² | - |
| 1777368212 | 3.33° C | 61% | 1021.7 hPa | 0 mm | - | 648 W/m² | - |
| 1777367927 | 3.33° C | 60% | 1021.7 hPa | 0 mm | - | 642 W/m² | - |
| 1777367619 | 3.33° C | 63% | 1021.6 hPa | 0 mm | - | 640 W/m² | - |
| 1777367313 | 3.33° C | 62% | 1021.6 hPa | 0 mm | - | 639 W/m² | - |
| 1777367025 | 3.33° C | 62% | 1021.6 hPa | 0 mm | - | 633 W/m² | - |
| 1777366718 | 3.33° C | 63% | 1021.7 hPa | 0 mm | - | 626 W/m² | - |
| 1777366423 | 2.78° C | 62% | 1021.7 hPa | 0 mm | - | 623 W/m² | - |
| 1777366114 | 2.78° C | 63% | 1021.7 hPa | 0 mm | - | 619 W/m² | - |
| 1777365809 | 2.78° C | 61% | 1021.6 hPa | 0 mm | - | 616 W/m² | - |
| 1777365521 | 2.78° C | 63% | 1021.6 hPa | 0 mm | - | 612 W/m² | - |
| 1777365215 | 2.78° C | 62% | 1021.6 hPa | 0 mm | - | 602 W/m² | - |
| 1777364923 | 2.78° C | 63% | 1021.5 hPa | 0 mm | - | 598 W/m² | - |
| 1777364616 | 2.78° C | 65% | 1021.5 hPa | 0 mm | - | 595 W/m² | - |
| 1777364312 | 2.22° C | 65% | 1021.5 hPa | 0 mm | - | 586 W/m² | - |
| 1777364034 | 2.22° C | 65% | 1021.4 hPa | 0 mm | - | 584 W/m² | - |
| 1777363726 | 2.22° C | 65% | 1021.4 hPa | 0 mm | - | 574 W/m² | - |
| 1777363421 | 2.22° C | 66% | 1021.4 hPa | 0 mm | - | 567 W/m² | - |
* Rain since midnight (hover to see other rain measurements)
** Current wind speed in m/s (hover to see current wind gust speed)